Stations météo

réclame
Mon MeteoGroup
Lahr, Allemagne (10805): Température de l'air & dewpoint: 13.11.2017 18:00:00 - 19.11.2017 18:00:00 (CET)Lahr, Allemagne (10805): Température de l'air 5cm & Température de l'air -5cm: 13.11.2017 18:00:00 - 19.11.2017 18:00:00 (CET)Lahr, Allemagne (10805): Température de l'air -20cm & Température de l'air -100cm: 13.11.2017 18:00:00 - 19.11.2017 18:00:00 (CET)Lahr, Allemagne (10805): Vitesse du vent & gusts: 13.11.2017 18:00:00 - 19.11.2017 18:00:00 (CET)Lahr, Allemagne (10805): Direction du vent: 13.11.2017 18:00:00 - 19.11.2017 18:00:00 (CET)Lahr, Allemagne (10805): reduced air pressure: 13.11.2017 18:00:00 - 19.11.2017 18:00:00 (CET)Lahr, Allemagne (10805): visibility: 13.11.2017 18:00:00 - 19.11.2017 18:00:00 (CET)Lahr, Allemagne (10805): Ensoleillement: 13.11.2017 18:00:00 - 19.11.2017 18:00:00 (CET)Lahr, Allemagne (10805): Quantités de précipitations: 13.11.2017 18:00:00 - 19.11.2017 18:00:00 (CET)
Date & Time tt [°C] td [°C] tt 5cm [°C] tt -5cm [°C] tt -20cm [°C] tt -100cm [°C] ff [km/h] ff [knt] fx [km/h] fx [knt] dd ppp [hPa] vv [km] sd [min] rr [mm]
19.11.2017 18:00:00 5,0 0,6 3,5 4,8 6,8 10,2 7 4 10 5 S 1023,4 60 0 0,0
19.11.2017 17:00:00 5,5 -0,6 1,8 6,0 6,8 10,2 7 4 18 10 W 1022,7 65 19 0,0
19.11.2017 16:00:00 7,9 -0,3 7,7 7,7 6,7 10,2 11 6 21 12 W 1022,0 64 57 0,0
19.11.2017 15:00:00 8,6 -0,3 9,7 8,5 6,4 10,3 11 6 23 13 WNW 1021,6 63 43 0,0
19.11.2017 14:00:00 8,3 -0,3 10,5 8,3 6,2 10,3 13 7 28 15 W 1021,7 26 58 0,0
19.11.2017 13:00:00 6,9 -0,1 6,4 7,2 6,0 10,3 12 6 24 13 WNW 1021,8 51 15 0,0
19.11.2017 12:00:00 7,1 1,0 7,0 6,7 5,9 10,3 17 9 32 17 WNW 1021,6 62 17 0,0
19.11.2017 11:00:00 6,6 3,4 7,3 5,8 5,8 10,3 13 7 18 10 SW 1021,4 57 37 0,0
19.11.2017 10:00:00 4,5 2,8 3,6 4,4 5,8 10,3 10 6 24 13 SSW 1020,7 25 2 0,0
19.11.2017 09:00:00 4,2 2,6 3,7 4,1 5,8 10,3 18 10 31 17 SSW 1020,6 19 0 0,0
19.11.2017 08:00:00 3,9 2,5 3,4 4,0 5,9 10,3 16 8 31 17 SSW 1019,6 13 0 0,1
19.11.2017 07:00:00 3,8 2,4 3,3 3,9 6,0 10,3 21 11 34 18 S 1019,2 12 0 0,2
19.11.2017 06:00:00 3,6 2,1 3,4 3,9 6,0 10,3 27 15 46 25 S 1018,9 12 0 0,0
19.11.2017 05:00:00 3,4 2,2 2,9 3,9 6,1 10,3 29 16 47 25 S 1018,6 10 0 1,9
19.11.2017 04:00:00 3,3 2,2 2,9 4,1 6,2 10,3 24 13 38 21 S 1019,7 4,4 0 1,6
19.11.2017 03:00:00 3,5 2,1 3,0 4,2 6,3 10,3 18 10 31 17 S 1020,6 4,3 0 1,1
19.11.2017 02:00:00 3,7 2,3 3,2 4,4 6,4 10,3 16 9 24 13 S 1021,2 3,9 0 1,1
19.11.2017 01:00:00 3,9 2,0 3,2 4,5 6,4 10,3 13 7 21 11 S 1021,9 5 0 0,9
19.11.2017 00:00:00 3,9 2,1 3,3 4,6 6,5 10,3 14 8 22 12 S 1022,1 8 0 0,5
18.11.2017 23:00:00 4,1 1,9 3,3 4,7 6,6 10,3 13 7 29 15 SSW 1022,7 7 0 0,6
18.11.2017 22:00:00 4,8 0,7 4,3 4,7 6,7 10,3 18 10 27 15 SSW 1022,9 17 0 0,0
18.11.2017 21:00:00 5,0 0,9 4,5 5,0 6,7 10,3 15 8 21 11 S 1023,5 16 0 0,0
18.11.2017 20:00:00 5,3 1,3 4,8 5,1 6,8 10,3 15 8 22 12 S 1023,8 10 0 0,0
18.11.2017 19:00:00 5,4 0,3 4,6 5,1 7,0 10,4 10 5 18 10 SW 1024,1 38 0 0,0
18.11.2017 18:00:00 5,0 -0,1 3,6 5,6 7,0 10,4 12 7 20 11 SW 1023,9 36 0 0,0
18.11.2017 17:00:00 6,2 -0,1 5,0 6,3 7,0 10,4 16 8 26 14 W 1024,1 39 0 0,0
18.11.2017 16:00:00 6,9 2,2 6,4 7,1 7,0 10,4 15 8 23 12 W 1023,8 10 0 0,0
18.11.2017 15:00:00 7,6 2,5 7,8 7,6 6,8 10,4 14 7 21 12 SSW 1023,6 25 4 0,0
18.11.2017 14:00:00 7,5 1,5 7,7 8,2 6,6 10,4 9 5 22 12 NNE 1024,0 10 9 0,0
18.11.2017 13:00:00 7,7 2,4 8,8 8,3 6,5 10,4 14 8 22 12 SSW 1024,3 39 8 0,0
18.11.2017 12:00:00 6,8 2,2 7,2 7,5 6,3 10,4 16 9 21 11 SW 1025,1 28 0 0,0
18.11.2017 11:00:00 6,3 3,9 7,1 6,9 6,2 10,4 11 6 15 8 SSW 1025,5 9 1 0,0
18.11.2017 10:00:00 6,0 3,8 6,8 5,9 6,2 10,4 10 5 16 8 S 1025,3 7 1 0,0
18.11.2017 09:00:00 5,0 4,4 5,1 5,2 6,2 10,4 6 3 9 5 S 1025,5 3,7 0 0,0
18.11.2017 08:00:00 4,8 4,4 4,7 5,1 6,2 10,4 7 4 11 6 SW 1025,6 3,4 0 0,0
18.11.2017 07:00:00 4,8 4,7 4,8 5,2 6,1 10,4 5 3 9 5 SSW 1025,4 2,1 0 0,0
18.11.2017 06:00:00 4,8 4,7 4,9 5,3 6,1 10,5 5 3 7 4 SW 1025,3 2,0 0 0,0
18.11.2017 05:00:00 4,7 4,6 4,9 5,2 6,1 10,5 4 2 4 2 S 1025,6 1,1 0 0,0
18.11.2017 04:00:00 4,6 4,4 4,8 5,2 6,1 10,5 0 0 4 2 N 1025,7 1,2 0 0,0
18.11.2017 03:00:00 4,7 4,4 4,8 5,2 6,1 10,5 0 0 5 3 N 1025,9 2,7 0 0,0
18.11.2017 02:00:00 4,6 4,4 4,7 5,1 6,1 10,5 4 2 5 3 W 1026,0 2,9 0 0,0
18.11.2017 01:00:00 4,4 4,1 4,6 5,1 6,1 10,5 0 0 7 4 N 1025,9 2,6 0 0,0
18.11.2017 00:00:00 4,3 4,2 4,5 5,1 6,1 10,5 5 3 7 4 NE 1026,4 2,1 0 0,0
17.11.2017 23:00:00 4,3 4,2 4,5 5,1 6,1 10,5 4 2 5 3 N 1026,6 0,3 0 0,0
17.11.2017 22:00:00 4,2 4,2 4,5 5,1 6,1 10,5 4 2 9 5 NNE 1026,7 0,2 0 0,0
17.11.2017 21:00:00 4,1 4,1 4,3 5,0 6,1 10,5 4 2 11 6 NE 1026,9 0,6 0 0,0
17.11.2017 20:00:00 4,2 3,9 4,4 5,1 6,1 10,6 9 5 16 8 NNE 1026,7 3,2 0 0,0
17.11.2017 19:00:00 4,2 3,8 4,3 5,2 6,1 10,6 11 6 18 10 NNE 1026,9 4,0 0 0,0
17.11.2017 18:00:00 4,4 3,9 4,5 5,3 6,1 10,6 11 6 16 8 N 1026,9 4,0 0 0,0
17.11.2017 17:00:00 4,4 3,5 4,6 5,7 6,1 10,6 11 6 17 9 N 1026,9 4,5 0 0,0
17.11.2017 16:00:00 4,6 3,4 4,9 6,2 6,0 10,6 11 6 16 9 N 1026,6 4,5 0 0,0
17.11.2017 15:00:00 4,7 3,1 5,4 6,4 5,8 10,6 9 5 13 7 N 1026,7 9 0 0,0
17.11.2017 14:00:00 4,5 2,5 5,2 6,6 5,6 10,6 9 5 13 7 N 1027,2 10 0 0,0
17.11.2017 13:00:00 4,5 2,0 5,3 6,4 5,4 10,6 5 3 11 6 ENE 1027,6 7 0 0,0
17.11.2017 12:00:00 4,0 2,1 5,0 6,0 5,3 10,6 8 4 13 7 NNE 1028,0 7 0 0,0
17.11.2017 11:00:00 3,7 1,3 4,5 5,4 5,2 10,6 2 1 5 3 - 1028,0 7 0 0,0
17.11.2017 10:00:00 2,8 1,0 3,5 4,2 5,1 10,7 5 3 6 3 SSW 1028,0 5 0 0,0
17.11.2017 09:00:00 2,3 1,0 2,3 3,5 5,1 10,7 2 1 5 3 - 1028,2 5 0 0,2
17.11.2017 08:00:00 2,2 0,7 2,0 3,2 5,1 10,7 5 3 8 4 SSE 1027,9 5 0 0,1
17.11.2017 07:00:00 2,1 0,0 2,3 3,2 5,1 10,7 5 3 8 4 WSW 1027,7 8 0 0,0
17.11.2017 06:00:00 2,1 0,0 2,3 3,1 5,1 10,7 4 2 8 5 SSE 1027,5 8 0 0,0
17.11.2017 05:00:00 2,1 0,0 2,2 2,9 5,2 10,7 6 3 9 5 SSW 1027,5 8 0 0,0
17.11.2017 04:00:00 1,8 -0,2 2,0 2,8 5,2 10,7 5 3 8 5 S 1027,3 8 0 0,0
17.11.2017 03:00:00 1,6 -0,3 1,6 2,8 5,3 10,7 6 3 11 6 S 1027,6 8 0 0,0
17.11.2017 02:00:00 1,7 -0,3 1,8 2,8 5,3 10,7 7 4 9 5 S 1027,8 8 0 0,0
17.11.2017 01:00:00 1,6 0,1 1,6 2,7 5,4 10,8 5 3 8 4 WSW 1027,8 7 0 0,0
17.11.2017 00:00:00 1,5 -0,1 1,3 2,8 5,5 10,8 5 3 11 6 SW 1028,0 7 0 0,0
16.11.2017 23:00:00 1,8 -0,6 1,5 3,2 5,5 10,8 8 4 10 5 S 1027,5 8 0 0,0
16.11.2017 22:00:00 2,1 0,0 1,9 3,4 5,6 10,8 5 3 9 5 WSW 1027,7 8 0 0,0
16.11.2017 21:00:00 2,5 -0,3 2,4 3,6 5,7 10,8 7 4 12 6 SSW 1027,4 9 0 0,0
16.11.2017 20:00:00 2,5 -0,1 2,5 3,8 5,7 10,8 2 1 9 5 SW 1027,1 8 0 0,0
16.11.2017 19:00:00 2,4 0,5 2,3 4,0 5,7 10,8 5 3 7 4 WSW 1026,7 9 0 0,0
16.11.2017 18:00:00 2,6 0,1 2,6 4,2 5,7 10,8 4 2 7 4 W 1026,6 8 0 0,0
16.11.2017 17:00:00 2,6 0,3 2,8 4,6 5,7 10,8 4 2 8 4 N 1026,4 9 0 0,0
16.11.2017 16:00:00 2,9 0,1 3,2 5,1 5,6 10,9 5 3 9 5 NNW 1026,2 10 0 0,0
16.11.2017 15:00:00 2,8 -0,4 3,5 5,3 5,5 10,9 4 2 10 5 N 1025,9 10 0 0,0
16.11.2017 14:00:00 3,1 -0,5 3,9 5,5 5,3 10,9 4 2 8 4 - 1026,0 10 0 0,0
16.11.2017 13:00:00 2,4 -0,8 3,3 4,9 5,2 10,9 8 4 11 6 WNW 1026,3 6 0 0,0
16.11.2017 12:00:00 2,5 -0,5 3,0 4,5 5,1 10,9 8 4 11 6 SW 1026,3 6 0 0,0
16.11.2017 11:00:00 1,9 0,2 2,4 3,7 5,1 10,9 8 4 9 5 SSW 1026,8 6 0 0,0
16.11.2017 10:00:00 1,2 0,1 1,4 3,2 5,1 10,9 5 3 9 5 S 1026,6 5 0 0,0
16.11.2017 09:00:00 1,1 0,0 1,2 2,8 5,1 10,9 5 3 11 6 S 1026,5 5 0 0,0
16.11.2017 08:00:00 0,7 0,4 0,9 2,7 5,2 11,0 8 4 13 7 S 1026,1 4,5 0 0,0
16.11.2017 07:00:00 0,3 0,0 0,7 2,7 5,2 11,0 8 4 13 7 S 1025,7 8 0 0,0
16.11.2017 06:00:00 0,4 0,4 0,7 2,8 5,3 11,0 9 5 12 7 SSE 1025,6 1,6 0 0,0
16.11.2017 05:00:00 0,2 0,2 0,7 2,8 5,3 11,0 6 4 9 5 S 1026,0 0,7 0 0,0
16.11.2017 04:00:00 0,1 0,1 0,5 2,9 5,4 11,0 7 4 10 5 S 1025,8 0,3 0 0,0
16.11.2017 03:00:00 0,4 0,4 0,8 3,1 5,4 11,0 7 4 11 6 SSE 1026,0 0,5 0 0,0
16.11.2017 02:00:00 0,8 0,8 1,2 3,2 5,4 11,0 3 1 10 5 NW 1026,1 0,5 0 0,0
16.11.2017 01:00:00 1,2 1,2 1,6 3,3 5,5 11,0 0 0 7 4 N 1026,2 0,3 0 0,0
16.11.2017 00:00:00 1,2 1,2 1,4 3,4 5,5 11,0 5 3 9 5 ESE 1026,5 0,2 0 0,0
15.11.2017 23:00:00 1,3 1,3 1,7 3,4 5,5 11,1 3 2 6 4 NE 1026,4 0,2 0 0,0
15.11.2017 22:00:00 1,4 1,4 1,6 3,4 5,5 11,1 5 3 8 5 E 1026,7 0,3 0 0,0
15.11.2017 21:00:00 1,5 1,5 1,8 3,5 5,6 11,1 5 3 10 5 ENE 1026,8 0,3 0 0,0
15.11.2017 20:00:00 1,4 1,4 1,8 3,4 5,6 11,1 5 3 11 6 ENE 1026,9 0,1 0 0,0
15.11.2017 19:00:00 1,2 1,2 1,6 3,4 5,7 11,1 9 5 16 9 NNE 1027,0 0,2 0 0,0
15.11.2017 18:00:00 1,0 1,0 1,4 3,5 5,7 11,1 8 4 14 7 NNE 1026,7 0,3 0 0,0
15.11.2017 17:00:00 0,7 0,7 1,1 3,9 5,7 11,1 11 6 17 9 NNE 1026,7 0,3 0 0,0
15.11.2017 16:00:00 1,0 1,0 1,7 4,5 5,6 11,1 9 5 15 8 NNE 1026,7 1,2 0 0,0
15.11.2017 15:00:00 1,2 1,2 2,2 5,0 5,5 11,1 9 5 16 9 N 1026,8 0,5 0 0,0
15.11.2017 14:00:00 0,7 0,7 2,1 5,0 5,3 11,1 11 6 16 9 NNE 1027,2 0,5 0 0,0
15.11.2017 13:00:00 1,2 1,2 2,2 4,9 5,2 11,2 13 7 16 8 NNE 1027,7 0,8 0 0,0
15.11.2017 12:00:00 0,1 0,1 1,7 4,5 5,0 11,2 8 4 10 6 N 1028,2 0,4 0 0,0
15.11.2017 11:00:00 -0,2 -0,2 1,0 3,6 5,0 11,2 5 3 11 6 NNW 1028,7 0,2 0 0,0
15.11.2017 10:00:00 -0,8 -0,8 0,3 2,8 5,0 11,2 8 4 11 6 N 1029,1 0,2 0 0,0
15.11.2017 09:00:00 -0,9 -0,9 -0,2 2,1 5,0 11,2 5 3 10 5 N 1029,1 0,2 0 0,0
15.11.2017 08:00:00 -1,0 -1,0 -0,4 1,8 5,0 11,2 2 1 8 5 N 1028,7 0,2 0 0,0
15.11.2017 07:00:00 -0,7 -0,7 -0,2 1,7 5,1 11,2 5 3 8 4 N 1028,2 0,1 0 0,0
15.11.2017 06:00:00 -0,5 -0,5 -0,1 1,5 5,2 11,2 3 1 6 4 N 1027,8 0,1 0 0,0
15.11.2017 05:00:00 -0,4 -0,4 -0,3 1,3 5,3 11,2 6 3 13 7 ENE 1028,0 0,1 0 0,0
15.11.2017 04:00:00 0,2 0,2 0,1 1,2 5,5 11,2 6 3 8 5 N 1028,1 0,1 0 0,0
15.11.2017 03:00:00 -0,6 -0,6 -0,4 1,2 5,6 11,2 2 1 6 3 E 1028,3 2,1 0 0,0
15.11.2017 02:00:00 -2,5 -2,9 -3,4 1,3 5,8 11,2 4 2 8 5 NE 1028,7 0,4 0 0,0
15.11.2017 01:00:00 -2,2 -2,2 -3,2 1,3 6,0 11,3 4 2 6 3 NW 1028,9 0,1 0 0,0
15.11.2017 00:00:00 -1,1 -1,3 -2,8 1,5 6,3 11,3 0 0 4 2 N 1028,9 0,2 0 0,0
14.11.2017 23:00:00 -0,3 -0,4 -2,3 1,6 6,5 11,3 5 3 5 3 NNW 1028,7 4,9 0 0,0
14.11.2017 22:00:00 -0,1 -0,5 -2,3 2,0 6,8 11,3 1 0 4 2 NNW 1029,0 6 0 0,0
14.11.2017 21:00:00 1,0 0,7 -1,1 2,6 7,1 11,3 4 2 8 5 SE 1028,8 7 0 0,0
14.11.2017 20:00:00 1,2 0,7 -1,4 3,3 7,3 11,3 4 2 4 2 NE 1028,5 10 0 0,0
14.11.2017 19:00:00 1,3 0,3 -0,1 4,2 7,5 11,3 2 1 7 4 - 1028,3 10 0 0,0
14.11.2017 18:00:00 3,8 1,8 0,7 5,4 7,6 11,3 8 4 8 4 ESE 1027,7 10 0 0,0
14.11.2017 17:00:00 3,8 2,2 2,1 7,2 7,5 11,3 5 3 11 6 N 1027,2 10 23 0,0
14.11.2017 16:00:00 6,4 3,0 6,0 9,2 7,3 11,3 8 4 14 8 N 1026,8 10 60 0,0
14.11.2017 15:00:00 6,8 2,8 7,9 10,4 6,9 11,3 11 6 16 9 N 1026,5 10 57 0,0
14.11.2017 14:00:00 7,1 2,1 9,2 11,1 6,5 11,3 5 3 12 6 NE 1026,7 10 60 0,0
14.11.2017 13:00:00 6,8 1,5 8,7 9,8 6,1 11,3 8 4 13 7 E 1027,0 10 60 0,0
14.11.2017 12:00:00 5,9 1,5 6,7 7,9 5,8 11,4 13 7 18 10 SE 1027,2 10 58 0,0
14.11.2017 11:00:00 3,6 2,0 3,9 6,4 5,7 11,4 11 6 12 7 ESE 1027,7 10 37 0,0
14.11.2017 10:00:00 1,1 0,9 2,3 3,7 5,7 11,4 5 3 6 4 NNE 1027,8 0,4 23 0,0
14.11.2017 09:00:00 0,6 0,5 1,0 2,8 5,7 11,4 3 2 10 5 NNE 1027,5 0,1 3 0,0
14.11.2017 08:00:00 0,5 0,5 0,5 2,3 5,8 11,4 4 2 6 4 NE 1026,9 0,1 0 0,0
14.11.2017 07:00:00 0,3 0,2 0,3 2,3 6,0 11,4 3 1 8 4 NE 1026,3 0,3 0 0,0
14.11.2017 06:00:00 -0,5 -0,5 -0,3 1,7 6,1 11,4 9 5 10 6 NW 1025,9 0,2 0 0,0
14.11.2017 05:00:00 -0,7 -0,9 -0,9 2,3 6,3 11,4 0 0 0 0 N 1025,6 0,1 0 0,0
14.11.2017 04:00:00 -0,3 -0,4 -0,2 2,3 6,5 11,4 0 0 3 2 N 1025,3 0,2 0 0,0
14.11.2017 03:00:00 -0,2 -0,2 -0,5 2,3 6,7 11,4 4 2 5 3 N 1024,9 0,1 0 0,0
14.11.2017 02:00:00 0,5 0,5 -0,9 2,6 6,8 11,4 3 2 6 3 SSW 1024,5 0,1 0 0,0
14.11.2017 01:00:00 1,9 1,9 -0,1 3,1 7,0 11,4 5 3 9 5 ESE 1024,0 0,2 0 0,0
14.11.2017 00:00:00 3,3 3,2 0,7 4,1 7,1 11,4 1 1 8 4 NNE 1023,8 2,8 0 0,0
13.11.2017 23:00:00 3,5 3,2 3,4 4,6 7,2 11,4 5 3 8 5 NNE 1023,4 6 0 0,2
13.11.2017 22:00:00 3,6 3,4 3,2 4,4 7,3 11,4 0 0 5 3 N 1023,2 8 0 0,0
13.11.2017 21:00:00 2,5 2,3 2,6 4,0 7,5 11,4 0 0 6 3 N 1022,7 7 0 0,0
13.11.2017 20:00:00 1,9 1,8 -0,3 3,7 7,8 11,5 4 2 4 2 - 1022,0 10 0 0,0
13.11.2017 19:00:00 2,8 2,5 0,8 4,6 8,0 11,5 4 2 6 3 SSE 1021,4 10 0 0,0
13.11.2017 18:00:00 4,0 3,1 1,8 5,9 8,0 11,5 5 3 9 5 WNW 1020,5 10 0 0,0

tt = Température de l'air
td = dewpoint
tt 5cm = Température de l'air 5cm
tt -5cm = Température de l'air -5cm
tt -20cm = Température de l'air -20cm
tt -100cm = Température de l'air -100cm
ff = Vitesse du vent
fx = gusts
dd = Direction du vent
ppp = reduced air pressure
vv = visibility
sd = Ensoleillement
rr = Quantités de précipitations

stations d'obs. à proximité